Location: Gajan
(43.0218°N, 1.1244°E)
Time: 14:56:33
(UTC+00:00)

Cosmos 1633 - Pass Details

Date: 22 April 2021
Orbit: 460 x 478 km, 82.5° (Epoch: 13 May)

Event Time Altitude Azimuth Distance (km) Brightness Sun altitude
Rises 20:36:17 0° 348° (NNW) 2,531 7.0 -18.5°
Reaches altitude 10° 20:38:24 10° 346° (NNW) 1,645 6.0 -18.8°
Maximum altitude 20:41:57 65° 264° (W) 523 2.8 -19.3°
Enters shadow 20:43:05 39° 198° (SSW) 722 3.2 -19.4°
